Weather History for Covington, KY

Change the Weather History Date:

Saturday, December 7, 2013

  Actual Average Record
Temperature  
Mean Temperature 23 °F 36 °F  
Max Temperature 27 °F 44 °F 69 °F (1998)
Min Temperature 19 °F 29 °F -4 °F (1977)
Degree Days  
Heating Degree Days 42 29  
Month to date heating degree days 162 193  
Since 1 July heating degree days 1198 1153  
Cooling Degree Days 0 0  
Month to date cooling degree days 0 0  
Year to date cooling degree days 1150 1121  
Moisture  
Dew Point 18 °F    
Average Humidity 78    
Maximum Humidity 92    
Minimum Humidity 63    
Precipitation  
Precipitation 0.00 in 0.11 in 1.18 in (1969)
Month to date precipitation 1.61 0.77  
Year to date precipitation 46.18 39.92  
Snow  
Snow 0.00 in 0.10 in 2.20 in (1950)
Month to date snowfall 5.3 0.7  
Since 1 July snowfall 7.7 1.5  
Snow Depth 4.00 in    
Sea Level Pressure  
Sea Level Pressure 30.53 in    
Wind  
Wind Speed 9 mph (North)    
Max Wind Speed 16 mph    
Max Gust Speed 20 mph    
Visibility 8 miles    
Events      
T = Trace of Precipitation, MM = Missing Value Source: NWS Daily Summary

Daily Weather History Graph

Daily Weather History Graph

Search for Another Location

Airport:

Trip Planner

Search our weather history database for the weather conditions in past years. The results will help you decide how hot, cold, wet, or windy it might be!

Date:

Astronomy

Dec. 07, 2013 Rise Set
Actual Time 7:44 AM EST 5:16 PM EST
Civil Twilight 7:14 AM EST 5:45 PM EST
Nautical Twilight 6:41 AM EST 6:19 PM EST
Astronomical Twilight 6:08 AM EST 6:51 PM EST
Moon 11:30 AM EST (12/7) 10:54 PM EST (12/7)
Length of Visible Light 10h 31m
Length of Day
9h 31m
Waxing Crescent, 29% of the Moon is Illuminated
Dec 7
Waxing Crescent
Dec 9
First Quarter
Dec 17
Full
Dec 25
Last Quarter
Jan 1
New

Hourly Weather History & Observations

Time (EST) Temp. Windchill Dew Point Humidity Pressure Visibility Wind Dir Wind Speed Gust Speed Precip Events Conditions
12:52 AM 26.1 °F 16.2 °F 24.1 °F 92% 30.40 in 7.0 mi NNW 10.4 mph - N/A   Overcast
1:52 AM 26.1 °F 16.2 °F 24.1 °F 92% 30.41 in 7.0 mi NNW 10.4 mph - N/A   Overcast
2:21 AM 26.6 °F 17.5 °F 24.8 °F 93% 30.39 in 7.0 mi NNW 9.2 mph - N/A   Overcast
2:52 AM 26.1 °F 16.8 °F 24.1 °F 92% 30.43 in 7.0 mi NNW 9.2 mph - N/A   Overcast
3:52 AM 26.1 °F 15.0 °F 23.0 °F 88% 30.45 in 7.0 mi NNW 12.7 mph - N/A   Overcast
4:52 AM 25.0 °F 13.1 °F 21.9 °F 88% 30.48 in 7.0 mi NNW 13.8 mph - N/A   Overcast
5:10 AM 24.8 °F 13.4 °F 21.2 °F 86% 30.46 in 7.0 mi North 12.7 mph - N/A   Overcast
5:52 AM 24.1 °F 12.5 °F 19.9 °F 84% 30.50 in 8.0 mi North 12.7 mph - N/A   Overcast
6:52 AM 21.0 °F 12.4 °F 18.0 °F 88% 30.53 in 7.0 mi NNW 6.9 mph - N/A   Scattered Clouds
7:52 AM 19.0 °F 8.2 °F 16.0 °F 88% 30.56 in 5.0 mi North 9.2 mph - N/A   Partly Cloudy
8:52 AM 19.0 °F 11.1 °F 15.1 °F 85% 30.58 in 10.0 mi North 5.8 mph - N/A   Partly Cloudy
9:52 AM 21.0 °F 12.4 °F 17.1 °F 85% 30.59 in 10.0 mi NNW 6.9 mph - N/A   Scattered Clouds
10:52 AM 24.1 °F 15.2 °F 18.0 °F 77% 30.61 in 10.0 mi North 8.1 mph - N/A   Scattered Clouds
11:52 AM 26.1 °F 16.8 °F 18.0 °F 71% 30.59 in 9.0 mi NE 9.2 mph - N/A   Scattered Clouds
12:52 PM 27.0 °F 18.7 °F 18.0 °F 69% 30.57 in 9.0 mi NNE 8.1 mph - N/A   Scattered Clouds
1:52 PM 26.1 °F 18.4 °F 17.1 °F 69% 30.56 in 10.0 mi North 6.9 mph - N/A   Scattered Clouds
2:52 PM 27.0 °F 19.5 °F 16.0 °F 63% 30.56 in 10.0 mi North 6.9 mph - N/A   Scattered Clouds
3:52 PM 26.1 °F 18.4 °F 17.1 °F 69% 30.56 in 9.0 mi North 6.9 mph - N/A   Scattered Clouds
4:52 PM 24.1 °F 16.0 °F 17.1 °F 75% 30.58 in 8.0 mi North 6.9 mph - N/A   Scattered Clouds
5:52 PM 21.9 °F 13.4 °F 16.0 °F 78% 30.58 in 9.0 mi North 6.9 mph - N/A   Mostly Cloudy
6:52 PM 21.0 °F 12.4 °F 16.0 °F 81% 30.59 in 8.0 mi North 6.9 mph - N/A   Mostly Cloudy
7:52 PM 21.9 °F 12.5 °F 15.1 °F 75% 30.59 in 9.0 mi NNE 8.1 mph - N/A   Mostly Cloudy
8:52 PM 21.0 °F 12.4 °F 14.0 °F 74% 30.59 in 8.0 mi NE 6.9 mph - N/A   Mostly Cloudy
9:52 PM 21.0 °F 10.6 °F 15.1 °F 78% 30.58 in 8.0 mi NE 9.2 mph - N/A   Mostly Cloudy
10:52 PM 21.0 °F 9.9 °F 15.1 °F 78% 30.56 in 8.0 mi NE 10.4 mph - N/A   Mostly Cloudy
11:52 PM 21.0 °F 9.9 °F 15.1 °F 78% 30.52 in 10.0 mi ENE 10.4 mph - N/A   Clear